Location: Aragoneses
(41.0275°N, 4.3847°W)
Time: 16:55:12
(UTC+00:00)

Gbstr 26 Del rocket - Pass Details

Date: 11 December 2025
Orbit: 490 x 1218 km, 51.8° (Epoch: 15 January)

Event Time Altitude Azimuth Distance (km) Brightness Sun altitude
Rises 17:29:47 0° 240° (WSW) 2,912 8.9 -7.6°
Reaches altitude 10° 17:32:16 10° 243° (WSW) 1,910 7.3 -8.1°
Maximum altitude 17:36:29 65° 326° (NW) 587 3.0 -8.8°
Enters shadow 17:40:01 12° 49° (NE) 1,615 4.6 -9.4°
